Date,TemperatureHighF,TemperatureAvgF,TemperatureLowF,DewpointHighF,DewpointAvgF,DewpointLowF,HumidityHigh,HumidityAvg,HumidityLow,PressureMaxIn,PressureMinIn,WindSpeedMaxMPH,WindSpeedAvgMPH,GustSpeedMaxMPH,PrecipitationSumIn
2013-2-1,68.0,53.5,39.5,17.0,13.7,10.0,37,22,11,30.21,30.04,13,2,17,0.00
2013-2-2,64.8,53.1,42.9,22.0,15.1,7.0,42,23,14,30.24,30.09,10,2,14,0.00
2013-2-3,64.4,51.6,37.9,28.0,23.6,18.0,56,36,18,30.24,29.91,10,2,17,0.00
2013-2-4,69.1,58.5,50.9,31.0,27.5,21.0,41,31,22,29.91,29.78,20,5,28,0.00
2013-2-5,69.6,56.9,46.1,35.0,28.7,21.0,54,35,22,29.93,29.82,16,3,19,0.00
2013-2-6,71.9,58.4,47.4,35.0,30.8,28.0,50,37,23,29.87,29.73,13,1,19,0.00
2013-2-7,68.5,55.7,45.0,32.0,25.3,19.0,45,32,16,30.05,29.81,12,2,19,0.00
2013-2-8,63.5,49.8,35.8,36.0,29.6,23.0,70,47,30,30.10,29.87,14,4,24,0.00
2013-2-9,74.4,61.0,49.5,38.0,27.0,11.0,59,32,12,29.89,29.54,25,9,35,0.00
2013-2-10,62.6,49.5,39.2,21.0,17.2,14.0,38,28,19,29.92,29.69,14,3,20,0.00
2013-2-11,66.9,53.0,38.0,34.0,24.3,17.0,57,34,19,29.93,29.72,13,2,21,0.00
2013-2-12,55.4,45.9,35.0,33.0,15.1,-4.0,59,32,9,30.07,29.75,23,8,33,0.00
2013-2-13,58.3,43.6,30.6,23.0,9.9,-2.0,68,31,9,30.14,30.00,13,3,17,0.00
2013-2-14,65.9,50.7,39.0,12.0,8.7,6.0,26,19,11,30.06,29.91,12,3,18,0.00
2013-2-15,45.8,38.1,32.9,29.0,24.7,11.0,79,62,24,30.41,30.01,8,2,12,0.00
2013-2-16,62.2,45.5,27.7,26.0,17.5,8.0,81,40,13,30.49,30.16,13,2,14,0.00
2013-2-17,69.5,55.9,42.7,20.0,12.9,8.0,27,19,11,30.15,29.75,12,4,21,0.00
2013-2-18,68.0,57.3,44.9,19.0,5.5,-5.0,23,14,6,29.95,29.74,18,6,30,0.00
2013-2-19,60.3,51.0,43.4,28.0,18.4,2.0,53,29,13,29.98,29.82,13,3,16,0.00
2013-2-20,75.9,58.4,41.0,35.0,15.7,-22.0,71,33,2,29.87,29.39,26,6,38,0.00
2013-2-21,57.6,46.3,36.8,26.0,16.1,3.0,64,34,13,29.87,29.48,26,11,34,0.00
2013-2-22,61.3,47.2,33.9,16.0,10.6,7.0,38,24,13,29.97,29.87,12,2,23,0.00
2013-2-23,65.8,51.4,37.5,20.0,12.3,5.0,42,23,9,30.00,29.76,14,4,22,0.00
2013-2-24,72.1,59.4,41.7,16.0,2.2,-25.0,26,12,2,29.75,29.40,16,5,27,0.00
2013-2-25,54.1,41.8,32.0,18.0,10.4,2.0,49,29,16,30.01,29.61,24,12,31,0.00
2013-2-26,40.4,39.1,37.5,7.0,5.8,4.0,27,25,22,29.98,29.92,7,2,10,0.00